This is the latest recevied weather packets stored in our database for station/object NM5PB-13. If no packets are shown the sender has not sent any weather packets the latest 10 day(s).
| Time | Temp. | Humidity | Pressure | Rain* | Wind** | Luminosity | Snow |
|---|---|---|---|---|---|---|---|
| 1777854060 | 22.22° C | 35% | 1005 hPa | 0 mm | - | - | - |
| 1777853157 | 23.33° C | 35% | 1005 hPa | 0 mm | - | - | - |
| 1777852252 | 23.33° C | 34% | 1005 hPa | 0 mm | - | - | - |
| 1777851348 | 23.33° C | 34% | 1005 hPa | 0 mm | - | - | - |
| 1777850443 | 23.33° C | 35% | 1005 hPa | 0 mm | - | - | - |
| 1777849541 | 23.89° C | 34% | 1005 hPa | 0 mm | - | - | - |
| 1777848635 | 23.89° C | 33% | 1005 hPa | 0 mm | - | - | - |
| 1777847731 | 24.44° C | 35% | 1005 hPa | 0 mm | - | - | - |
| 1777846826 | 24.44° C | 36% | 1005 hPa | 0 mm | - | - | - |
| 1777845922 | 24.44° C | 36% | 1005 hPa | 0 mm | - | - | - |
| 1777845018 | 24.44° C | 35% | 1005 hPa | 0 mm | - | - | - |
| 1777844115 | 24.44° C | 36% | 1005 hPa | 0 mm | - | - | - |
| 1777843212 | 25° C | 38% | 1005 hPa | 0 mm | - | - | - |
| 1777842309 | 25° C | 37% | 1005 hPa | 0 mm | - | - | - |
| 1777841403 | 25° C | 37% | 1005 hPa | 0 mm | - | - | - |
| 1777840498 | 24.44° C | 36% | 1005 hPa | 0 mm | - | - | - |
| 1777839596 | 25° C | 38% | 1005 hPa | 0 mm | - | - | - |
| 1777838693 | 24.44° C | 36% | 1005 hPa | 0 mm | - | - | - |
| 1777837787 | 24.44° C | 37% | 1005 hPa | 0 mm | - | - | - |
| 1777836884 | 23.89° C | 40% | 1005 hPa | 0 mm | - | - | - |
| 1777835981 | 23.33° C | 41% | 1005 hPa | 0 mm | - | - | - |
| 1777835076 | 22.78° C | 41% | 1006 hPa | 0 mm | - | - | - |
| 1777834170 | 22.22° C | 44% | 1006 hPa | 0 mm | - | - | - |
| 1777833267 | 21.67° C | 45% | 1006 hPa | 0 mm | - | - | - |
| 1777832364 | 21.11° C | 45% | 1006 hPa | 0 mm | - | - | - |
* Rain latest hour (hover to see other rain measurements)
** Current wind speed in m/s (hover to see current wind gust speed)